EHI
0 0 1 2 3 2 1 1 2 3 3 3 1 0 0 0 0 0 0 0 0 0 0 0 0 0 0 0 0 0 0 0 0 0 0 0 0 0 0 0 0 0 0
0 0 1 3 3 2 1 1 2 3 3 3 2 1 0 0 0 0 0 0 0 0 0 0 0 0 1 1 1 1 1 0 0 0 0 0 0 0 0 0 0 0 0
1 1 2 3 3 2 1 0 1 2 3 3 3 1 0 0 0 0 0 0 0 0 0 0 0 1 2 2 2 2 2 1 0 0 0 0 0 0 0 0 0 0 0
2 3 3 3 3 2 2 1 1 2 3 4 4 3 1 0 0 0 0 0 0 1 1 1 0 1 2 3 3 3 2 1 0 0 0 0 0 0 0 0 0 0 0
2 2 3 2 2 3 3 3 2 3 4 5 5 4 1 0 0 0 0 0 0 1 2 2 0 0 1 2 2 1 1 0 0 0 0 0 0 0 0 0 0 0 0
1 1 2 2 1 2 3 3 3 4 4 4 4 3 1 0 0 0 0 0 0 1 1 1 0 0 1 1 1 0 0 0 0 0 0 0 0 0 0 0 0 0 0
1 2 3 3 2 2 2 3 3 3 4 3 2 2 1 0 0 0 0 0 0 0 0 0 0 0 0 0 0 0 0 0 0 0 0 0 0 0 0 0 0 0 0
2 2 3 3 3 2 2 2 2 2 3 3 3 3 1 0 0 0 0 0 0 0 0 0 1 0 0 0 0 0 0 0 0 0 0 0 0 0 0 0 0 0 0
1 2 2 2 3 2 2 1 1 1 2 4 4 3 2 1 0 0 0 0 0 0 0 1 1 0 0 0 0 0 0 0 0 0 0 0 0 0 0 0 0 0 0
1 1 2 3 3 2 1 0 0 1 1 3 3 3 2 1 0 0 0 0 0 0 1 2 2 1 0 0 0 0 0 0 0 0 0 0 0 0 0 0 0 0 0
0 1 2 3 3 3 2 1 1 1 1 2 1 1 1 0 0 0 0 0 0 0 1 2 2 1 0 0 0 0 0 0 0 0 0 0 0 0 0 0 0 0 0
0 0 1 1 2 3 3 3 2 1 1 2 1 0 0 0 0 0 0 0 0 0 0 1 1 0 0 0 0 0 0 0 0 0 0 0 0 0 0 0 0 0 1
0 0 0 0 1 2 3 3 3 3 2 2 1 0 0 0 0 0 0 0 0 0 0 0 0 0 0 0 0 0 0 0 0 0 0 0 0 0 0 0 0 0 1
0 0 0 0 0 1 2 3 3 3 2 1 0 0 0 0 0 0 0 0 0 0 0 0 0 0 0 0 0 0 0 0 0 0 0 0 0 0 0 0 0 0 1
0 0 0 0 0 0 1 1 2 2 1 0 0 0 0 0 0 0 0 0 0 0 0 0 0 0 0 0 0 0 0 0 0 0 0 0 0 0 0 0 0 0 0
0 0 0 0 0 0 0 0 1 1 0 0 0 0 0 0 0 0 0 0 0 0 0 0 0 0 0 0 0 0 0 0 0 0 0 0 0 0 0 0 0 0 0
0 0 0 0 0 0 0 0 0 0 0 0 0 0 0 0 0 0 0 0 0 0 0 0 0 0 0 0 0 0 0 0 0 0 0 0 0 0 0 0 0 0 0
0 0 0 0 0 0 0 0 0 0 0 0 0 0 0 0 0 0 0 0 0 0 0 0 0 0 0 0 0 0 0 0 0 0 0 0 0 0 0 0 0 0 0
0 0 0 0 0 0 0 0 0 0 0 0 0 0 0 0 0 0 0 0 0 0 0 0 0 0 0 0 0 0 0 0 0 0 0 0 0 0 0 0 0 0 0
0 0 0 0 0 0 0 0 0 0 0 0 0 0 0 0 0 0 0 0 0 0 0 0 0 0 0 0 0 0 0 0 0 0 0 0 0 0 0 0 0 0 0
0 0 0 0 0 0 0 0 0 0 0 0 0 0 0 0 0 0 0 0 0 0 0 0 0 0 0 0 0 0 0 0 0 0 0 0 0 0 0 0 0 0 0
0 0 0 0 0 0 0 0 0 0 0 0 0 0 0 0 0 0 0 0 0 0 0 0 0 0 0 0 0 0 0 0 0 0 0 0 0 0 0 0 0 0 0
0 0 0 0 0 0 0 0 0 0 0 0 0 0 0 0 0 0 0 0 0 0 0 0 0 0 0 0 0 0 0 0 0 0 0 0 0 0 0 0 0 0 0
0 0 0 0 0 0 0 0 0 0 0 0 0 0 0 0 0 0 0 0 0 0 0 0 0 0 0 0 0 0 0 0 0 0 0 0 0 0 0 0 0 0 0
0 0 0 0 0 0 0 0 0 0 0 0 0 0 0 0 0 0 0 0 0 0 0 0 0 0 0 0 0 0 0 0 0 0 0 0 0 0 0 0 0 0 0
0 0 0 0 0 0 0 0 0 0 0 0 0 0 0 0 0 0 0 0 0 0 0 0 0 0 0 0 0 0 0 0 0 0 0 0 0 0 0 0 0 0 0
Wind_Speed
1 3 2 3 6 7 8 9 10 10 10 10 11 11 11 11 11 11 11 12 12 12 12 12 12 12 12 13 13 13 13 14 13 13 12 12 12 12 13 13 11 8 14
1 2 1 4 7 8 8 9 9 10 10 10 10 11 11 11 11 11 11 11 11 12 12 12 12 11 12 12 12 12 13 13 13 12 11 9 10 11 12 12 11 8 13
1 1 2 5 7 8 9 9 9 10 10 10 10 10 11 11 11 11 11 11 11 11 11 11 12 11 11 11 11 11 12 12 12 12 10 6 6 10 11 11 11 12 12
2 2 2 7 8 9 9 9 9 9 9 10 10 10 10 10 10 10 10 10 11 11 11 11 11 11 11 11 11 11 11 11 11 10 6 5 4 9 10 10 11 11 12
3 3 3 8 9 9 9 9 9 9 9 9 9 10 10 10 10 10 10 10 10 11 11 11 11 11 11 10 10 11 11 11 10 8 5 5 4 8 10 10 10 11 12
5 4 4 8 9 9 9 9 9 9 9 9 9 9 9 9 9 10 10 10 10 10 10 10 10 10 10 10 10 10 11 10 8 5 5 4 4 7 9 9 9 10 10
5 5 5 9 9 9 9 9 9 9 9 9 9 9 9 9 9 10 9 9 9 9 9 10 10 9 10 10 10 10 10 9 6 4 4 4 4 7 8 8 8 8 9
5 5 6 9 9 9 9 9 9 9 9 9 9 9 9 9 9 9 9 9 9 9 9 9 9 9 9 9 9 9 9 8 6 4 4 3 5 7 7 7 7 7 8
7 6 6 6 7 9 9 10 9 9 9 9 10 10 10 9 9 9 9 9 8 9 9 9 9 8 9 9 9 9 8 8 5 3 3 2 5 6 6 6 6 6 6
7 6 6 6 6 5 6 9 10 10 9 9 10 10 10 9 9 9 8 8 8 8 8 8 9 8 9 9 9 9 8 6 4 3 2 2 4 5 6 6 6 5 5
6 5 5 6 6 5 5 8 8 9 9 8 7 9 8 5 5 5 7 8 8 8 8 8 8 8 8 8 8 8 6 3 3 2 2 3 4 4 5 5 5 5 4
3 4 4 5 5 5 5 5 4 4 5 4 4 4 4 3 4 5 7 8 9 9 8 9 9 8 6 3 5 6 3 3 2 2 2 4 3 3 4 4 4 4 4
2 3 4 4 4 4 3 3 3 3 3 4 4 4 3 3 3 4 3 4 4 6 4 5 5 4 3 3 2 2 3 2 2 2 2 4 3 2 2 3 3 3 3
3 2 3 3 3 3 3 3 3 3 3 3 4 4 3 2 3 3 2 3 3 2 3 3 3 3 3 3 2 2 2 2 2 1 2 4 3 2 1 1 2 2 2
2 2 2 3 3 3 3 2 3 3 3 3 3 4 4 2 2 2 2 2 2 2 2 2 2 3 3 3 2 2 2 2 2 2 2 3 3 3 2 1 0 1 1
2 2 1 2 2 3 3 2 2 2 2 3 3 3 4 3 2 2 2 2 2 2 2 2 2 2 2 1 2 2 2 1 2 2 2 3 4 4 3 2 1 1 0
2 2 2 2 3 3 3 2 2 2 2 2 3 3 3 3 3 2 1 2 2 2 2 2 2 1 2 2 2 2 1 1 2 2 2 2 2 4 4 3 3 2 2
2 2 2 2 3 3 3 2 2 2 2 2 2 3 3 3 3 2 2 2 2 2 1 1 1 1 1 1 1 1 1 1 1 1 2 2 2 2 3 4 4 3 3
3 3 3 3 3 3 3 3 2 2 2 2 2 2 3 3 3 2 2 2 2 2 1 1 2 1 1 2 2 1 1 1 1 1 2 2 2 2 2 4 5 5 4
3 4 4 3 3 3 3 2 2 3 2 2 2 2 3 3 2 2 2 2 2 1 2 2 2 2 1 1 1 1 1 1 1 1 1 1 2 2 2 2 2 3 5
4 4 3 3 3 2 2 1 1 2 2 2 2 2 3 3 3 2 2 2 2 1 2 2 2 2 2 1 1 1 1 0 0 1 1 1 1 2 2 2 2 2 2
3 3 3 2 2 2 1 1 0 0 0 1 1 2 2 2 3 2 1 1 2 1 2 2 2 1 1 1 1 0 1 1 1 1 1 0 1 1 2 2 2 2 2
2 2 2 2 2 1 1 1 2 2 2 2 2 2 3 3 2 2 2 1 1 1 1 1 1 1 1 2 1 0 0 2 2 1 1 1 1 1 1 2 2 2 2
2 2 2 2 2 1 2 2 2 1 0 1 2 2 3 3 2 2 2 2 1 1 1 1 1 1 1 1 2 1 1 1 1 2 1 1 1 1 2 2 2 2 2
2 2 2 2 1 1 1 2 1 0 0 1 2 2 3 2 2 2 2 2 2 1 1 1 2 1 1 1 2 1 1 2 1 2 3 2 2 2 2 2 2 2 2
1 1 1 2 1 1 1 1 1 1 1 1 2 2 2 2 2 2 2 2 2 2 2 2 2 2 2 2 2 2 1 1 1 1 2 3 3 2 2 2 2 2 2
Wind_Direction
301 301 324 61 76 80 79 75 72 68 67 67 68 67 67 67 68 68 67 65 66 67 68 69 72 72 74 75 76 75 72 71 70 69 69 71 76 81 81 79 75 71 80
233 288 44 77 87 83 82 77 73 70 67 67 67 67 67 66 65 64 64 64 66 67 68 68 68 70 72 75 78 77 73 72 68 66 62 63 71 81 82 83 82 82 82
69 360 80 85 90 85 81 80 75 72 69 68 67 66 65 64 63 62 62 62 64 66 67 67 66 68 70 74 77 77 75 72 68 62 58 53 67 81 82 84 85 86 85
71 50 79 86 90 86 81 78 77 74 71 70 68 67 66 65 63 60 61 62 63 65 67 67 67 66 67 72 75 77 76 72 66 59 50 44 56 79 81 83 85 86 86
54 42 81 88 88 88 83 78 75 72 71 71 69 67 66 66 64 61 61 62 62 64 65 66 67 68 67 69 73 75 74 70 64 56 45 40 46 77 78 80 84 86 86
58 43 64 86 88 86 84 78 74 71 70 71 71 69 66 65 64 63 61 60 62 64 65 66 67 66 66 68 73 74 71 65 60 54 46 39 42 71 77 79 84 88 90
65 48 55 76 81 81 80 77 74 71 68 68 68 70 68 65 63 61 60 60 62 63 65 66 67 67 66 68 71 75 70 61 59 55 46 40 47 68 76 80 83 87 91
72 57 53 61 69 72 73 71 69 69 65 63 62 63 64 63 62 59 57 59 61 61 60 63 65 68 67 67 69 71 67 60 59 54 46 41 55 70 76 76 80 85 88
61 57 48 48 53 56 63 64 62 62 60 59 57 55 54 55 55 55 52 56 58 59 56 58 62 68 69 67 65 63 62 54 49 44 45 38 55 68 73 72 75 82 89
57 54 50 47 46 45 47 55 56 54 54 55 54 52 48 47 48 47 44 47 52 54 50 56 56 63 68 64 60 56 51 49 41 37 33 43 59 70 71 72 73 78 94
55 47 48 50 46 44 48 48 49 48 46 49 49 50 47 40 36 38 37 42 44 49 47 54 53 57 60 58 55 50 43 40 33 28 21 36 62 70 71 76 76 79 89
63 48 46 53 50 46 49 45 39 43 36 38 42 46 45 40 36 38 36 40 39 39 40 48 47 51 50 46 42 41 37 31 37 18 16 21 50 67 78 83 80 82 89
96 63 49 50 52 53 53 52 42 37 36 31 34 40 46 44 37 36 33 28 29 33 33 31 36 37 39 39 37 32 32 26 20 2 7 11 24 46 79 99 98 91 99
95 72 56 54 60 55 56 54 53 42 35 32 26 29 42 44 35 32 33 23 24 24 27 21 31 28 34 35 42 37 29 18 5 354 357 6 10 19 45 104 128 121 126
111 86 61 67 70 65 64 53 56 47 39 28 27 28 32 39 37 35 29 27 21 21 26 20 27 26 26 29 31 32 22 8 2 357 342 352 4 18 24 17 185 174 169
131 120 91 83 83 78 72 62 58 52 44 34 25 24 29 29 31 36 35 27 18 17 15 14 8 12 10 20 28 17 11 356 6 354 352 348 358 11 24 21 20 18 238
147 127 118 110 84 84 80 63 57 53 49 45 22 18 27 26 22 24 35 27 7 6 18 20 11 10 10 13 12 6 358 349 3 354 1 6 351 354 10 17 16 8 1
137 126 107 97 83 79 76 71 63 53 50 42 25 15 20 22 22 25 29 18 360 1 15 26 10 5 4 356 346 341 344 347 7 4 16 13 4 358 358 13 16 18 4
138 128 111 93 88 76 69 63 59 53 44 33 27 19 9 9 19 29 24 8 7 14 8 4 8 351 351 341 325 340 351 343 1 29 29 18 15 9 5 8 9 6 2
110 108 105 92 82 77 70 62 51 46 32 26 25 14 8 3 9 27 31 11 12 21 13 5 356 348 338 313 321 342 328 322 26 47 34 15 11 6 12 15 2 352 356
89 94 101 94 86 83 72 62 52 29 9 8 6 10 10 7 8 29 28 18 12 16 359 359 3 351 354 347 16 347 335 300 66 50 359 356 6 357 13 11 358 355 339
117 114 110 105 97 93 87 86 118 93 353 339 344 4 5 5 1 8 33 10 1 4 12 5 18 341 333 350 8 19 316 307 331 324 308 303 330 0 350 344 347 343 332
141 152 144 133 111 94 80 74 55 39 15 9 359 355 352 358 352 353 351 353 350 3 344 318 348 349 310 315 341 163 197 253 300 284 265 283 319 331 324 315 324 323 323
185 168 153 142 121 112 109 106 109 91 330 308 320 324 330 346 348 340 344 339 320 333 306 298 328 303 300 294 315 324 282 245 244 290 294 289 308 300 299 301 293 290 304
172 166 164 142 127 130 128 138 138 126 265 310 321 327 326 329 335 337 328 328 314 294 283 285 302 305 280 278 290 299 309 300 252 247 277 290 294 272 274 271 265 270 278
77 93 140 144 154 160 154 152 167 192 223 289 317 317 317 314 315 317 317 301 302 295 277 264 266 271 275 273 284 276 264 269 266 257 264 276 281 280 280 262 254 256 261